| time (UTC) | temp F | wind direction | speed MPH | gust MPH | rain 1hr in | rain 24hr in | rain mn in | humidity % | barometer mb |
| 20260906161516 | 70 | 90 | 1.0 | 6.0 | 0.00 | 0.00 | 0.00 | 57 | 1029.6 |
| 20260906160536 | 69 | 0.0 | 3.0 | 0.00 | 0.00 | 0.00 | 61 | 1029.2 | |
| 20260906155516 | 69 | 0.0 | 0.0 | 0.00 | 0.00 | 0.00 | 61 | 1029.2 | |
| 20260906154516 | 68 | 0.0 | 2.0 | 0.00 | 0.00 | 0.00 | 63 | 1029.2 | |
| 20260906153516 | 67 | 0.0 | 0.0 | 0.00 | 0.00 | 0.00 | 65 | 1029.1 | |
| 20260906152516 | 63 | 0.0 | 0.0 | 0.00 | 0.00 | 0.00 | 77 | 1028.4 | |
| 20260906151517 | 60 | 0.0 | 1.0 | 0.00 | 0.00 | 0.00 | 83 | 1028.0 | |
| 20260906150516 | 58 | 0.0 | 0.0 | 0.00 | 0.00 | 0.00 | 90 | 1027.6 | |
| 20260906145516 | 56 | 0.0 | 0.0 | 0.00 | 0.00 | 0.00 | 92 | 1027.0 | |
| 20260906144516 | 55 | 0.0 | 0.0 | 0.00 | 0.00 | 0.00 | 92 | 1027.0 | |
| 20260906143516 | 55 | 0.0 | 0.0 | 0.00 | 0.00 | 0.00 | 91 | 1027.1 | |
| 20260906142536 | 54 | 0.0 | 0.0 | 0.00 | 0.00 | 0.00 | 91 | 1026.9 | |
| 20260906141516 | 53 | 0.0 | 0.0 | 0.00 | 0.00 | 0.00 | 92 | 1026.4 | |
| 20260906140516 | 53 | 0.0 | 0.0 | 0.00 | 0.00 | 0.00 | 92 | 1026.7 | |
| 20260906135516 | 52 | 0.0 | 0.0 | 0.00 | 0.00 | 0.00 | 92 | 1026.6 | |
| 20260906134516 | 52 | 0.0 | 0.0 | 0.00 | 0.00 | 0.00 | 92 | 1026.5 | |
| 20260906133516 | 52 | 0.0 | 0.0 | 0.00 | 0.00 | 0.00 | 91 | 1026.4 | |
| 20260906132536 | 52 | 0.0 | 0.0 | 0.00 | 0.00 | 0.00 | 91 | 1026.3 | |
| 20260906131536 | 52 | 0.0 | 0.0 | 0.00 | 0.00 | 0.00 | 90 | 1026.4 | |
| 20260906130516 | 52 | 0.0 | 0.0 | 0.00 | 0.00 | 0.00 | 91 | 1026.9 | |
| 20260906125516 | 53 | 0.0 | 0.0 | 0.00 | 0.00 | 0.00 | 90 | 1027.2 | |
| 20260906124516 | 53 | 0.0 | 0.0 | 0.00 | 0.00 | 0.00 | 90 | 1027.3 | |
| 20260906123516 | 53 | 0.0 | 0.0 | 0.00 | 0.00 | 0.00 | 90 | 1027.3 | |
| 20260906122516 | 53 | 0.0 | 0.0 | 0.00 | 0.00 | 0.00 | 90 | 1027.3 | |
| 20260906121515 | 53 | 0.0 | 0.0 | 0.00 | 0.00 | 0.00 | 91 | 1027.4 | |
| 20260906120516 | 53 | 0.0 | 0.0 | 0.00 | 0.00 | 0.00 | 90 | 1027.3 | |
| 20260906115536 | 53 | 0.0 | 0.0 | 0.00 | 0.00 | 0.00 | 90 | 1027.4 | |
| 20260906114516 | 53 | 0.0 | 0.0 | 0.00 | 0.00 | 0.00 | 89 | 1027.3 | |
| 20260906113515 | 53 | 0.0 | 0.0 | 0.00 | 0.00 | 0.00 | 88 | 1027.4 | |
| 20260906112516 | 54 | 0.0 | 0.0 | 0.00 | 0.00 | 0.00 | 87 | 1027.5 | |
| 20260906111536 | 54 | 0.0 | 0.0 | 0.00 | 0.00 | 0.00 | 87 | 1028.0 | |
| 20260906110516 | 55 | 0.0 | 0.0 | 0.00 | 0.00 | 0.00 | 87 | 1028.2 | |
| 20260906105535 | 54 | 0.0 | 0.0 | 0.00 | 0.00 | 0.00 | 86 | 1028.1 | |
| 20260906104516 | 54 | 0.0 | 0.0 | 0.00 | 0.00 | 0.00 | 87 | 1028.1 | |
| 20260906103515 | 54 | 0.0 | 0.0 | 0.00 | 0.00 | 0.00 | 89 | 1028.6 | |
| 20260906102515 | 55 | 0.0 | 0.0 | 0.00 | 0.00 | 0.00 | 89 | 1028.5 | |
| 20260906101516 | 55 | 0.0 | 0.0 | 0.00 | 0.00 | 0.00 | 88 | 1028.7 | |
| 20260906100515 | 55 | 0.0 | 0.0 | 0.00 | 0.00 | 0.00 | 88 | 1029.2 | |
| 20260906095516 | 56 | 0.0 | 0.0 | 0.00 | 0.00 | 0.00 | 88 | 1029.2 | |
| 20260906094555 | 56 | 0.0 | 0.0 | 0.00 | 0.00 | 0.00 | 87 | 1029.3 | |
| 20260906093515 | 57 | 0.0 | 0.0 | 0.00 | 0.00 | 0.00 | 85 | 1029.9 | |
| 20260906092515 | 57 | 0.0 | 0.0 | 0.00 | 0.00 | 0.00 | 84 | 1029.8 | |
| 20260906091515 | 57 | 0.0 | 0.0 | 0.00 | 0.00 | 0.00 | 84 | 1029.9 | |
| 20260906090515 | 57 | 0.0 | 0.0 | 0.00 | 0.00 | 0.00 | 85 | 1030.1 | |
| 20260906085515 | 57 | 0.0 | 0.0 | 0.00 | 0.00 | 0.00 | 85 | 1030.3 | |
| 20260906084515 | 57 | 0.0 | 0.0 | 0.00 | 0.00 | 0.00 | 86 | 1030.4 | |
| 20260906083515 | 58 | 0.0 | 0.0 | 0.00 | 0.00 | 0.00 | 85 | 1031.1 | |
| 20260906082515 | 59 | 0.0 | 0.0 | 0.00 | 0.00 | 0.00 | 82 | 1031.3 | |
| 20260906081558 | 59 | 0.0 | 0.0 | 0.00 | 0.00 | 0.00 | 79 | 1031.1 | |
| 20260906080517 | 59 | 0.0 | 0.0 | 0.00 | 0.00 | 0.00 | 78 | 1030.8 | |
| 20260906075517 | 59 | 0.0 | 0.0 | 0.00 | 0.00 | 0.00 | 80 | 1030.8 | |
| 20260906074517 | 59 | 0.0 | 0.0 | 0.00 | 0.00 | 0.00 | 78 | 1030.6 | |
| 20260906073537 | 60 | 0.0 | 2.0 | 0.00 | 0.00 | 0.00 | 77 | 1030.6 | |
| 20260906072517 | 61 | 0.0 | 0.0 | 0.00 | 0.00 | 0.00 | 72 | 1031.3 | |
| 20260906071517 | 61 | 0.0 | 1.0 | 0.00 | 0.00 | 0.00 | 72 | 1031.4 | |
| 20260906070517 | 61 | 0.0 | 0.0 | 0.00 | 0.00 | 0.00 | 70 | 1031.6 | |
| 20260906065516 | 61 | 0.0 | 0.0 | 0.00 | 0.00 | 0.00 | 71 | 1031.5 | |
| 20260906064516 | 61 | 0.0 | 0.0 | 0.00 | 0.00 | 0.00 | 72 | 1031.5 | |
| 20260906063516 | 61 | 0.0 | 0.0 | 0.00 | 0.00 | 0.00 | 72 | 1031.2 | |
| 20260906062516 | 61 | 0.0 | 0.0 | 0.00 | 0.00 | 0.00 | 72 | 1031.1 | |
| 20260906061556 | 62 | 0.0 | 2.0 | 0.00 | 0.00 | 0.00 | 70 | 1031.4 | |
| 20260906060536 | 62 | 0.0 | 2.0 | 0.00 | 0.00 | 0.00 | 69 | 1031.1 | |
| 20260906055516 | 61 | 0.0 | 1.0 | 0.00 | 0.00 | 0.00 | 72 | 1031.2 | |
| 20260906054515 | 61 | 0.0 | 0.0 | 0.00 | 0.00 | 0.00 | 74 | 1031.2 | |
| 20260906053515 | 61 | 0.0 | 0.0 | 0.00 | 0.00 | 0.00 | 73 | 1030.7 | |
| 20260906052536 | 62 | 0.0 | 0.0 | 0.00 | 0.00 | 0.00 | 73 | 1030.9 | |
| 20260906051515 | 63 | 0.0 | 0.0 | 0.00 | 0.00 | 0.00 | 70 | 1031.1 | |
| 20260906050536 | 62 | 0.0 | 0.0 | 0.00 | 0.00 | 0.00 | 70 | 1031.2 | |
| 20260906045515 | 62 | 0.0 | 0.0 | 0.00 | 0.00 | 0.00 | 70 | 1031.1 | |
| 20260906044515 | 62 | 0.0 | 0.0 | 0.00 | 0.00 | 0.00 | 71 | 1031.1 | |
| 20260906043536 | 62 | 0.0 | 1.0 | 0.00 | 0.00 | 0.00 | 71 | 1030.7 | |
| 20260906042516 | 63 | 0.0 | 2.0 | 0.00 | 0.00 | 0.00 | 69 | 1031.3 | |
| 20260906041516 | 64 | 0.0 | 1.0 | 0.00 | 0.00 | 0.00 | 67 | 1031.4 | |
| 20260906040516 | 64 | 0.0 | 2.0 | 0.00 | 0.00 | 0.00 | 67 | 1030.9 | |
| 20260906035516 | 64 | 0.0 | 0.0 | 0.00 | 0.00 | 0.00 | 67 | 1031.0 | |
| 20260906034516 | 64 | 0.0 | 0.0 | 0.00 | 0.00 | 0.00 | 67 | 1030.9 | |
| 20260906033515 | 64 | 0.0 | 0.0 | 0.00 | 0.00 | 0.00 | 66 | 1029.3 | |
| 20260906032555 | 64 | 0.0 | 1.0 | 0.00 | 0.00 | 0.00 | 66 | 1029.3 | |
| 20260906031515 | 64 | 0.0 | 1.0 | 0.00 | 0.00 | 0.00 | 66 | 1029.2 | |
| 20260906030515 | 64 | 0.0 | 0.0 | 0.00 | 0.00 | 0.00 | 66 | 1027.7 | |
| 20260906025515 | 65 | 0.0 | 0.0 | 0.00 | 0.00 | 0.00 | 65 | 1027.7 | |
| 20260906024515 | 65 | 0.0 | 0.0 | 0.00 | 0.00 | 0.00 | 64 | 1027.8 | |
| 20260906023516 | 65 | 0.0 | 1.0 | 0.00 | 0.00 | 0.00 | 64 | 1026.3 | |
| 20260906022515 | 66 | 0.0 | 2.0 | 0.00 | 0.00 | 0.00 | 63 | 1026.3 | |
| 20260906021515 | 66 | 225 | 1.0 | 5.0 | 0.00 | 0.00 | 0.00 | 63 | 1026.2 |
| 20260906020515 | 67 | 248 | 1.0 | 5.0 | 0.00 | 0.00 | 0.00 | 62 | 1025.2 |
| 20260906015517 | 67 | 248 | 2.0 | 5.0 | 0.00 | 0.00 | 0.00 | 61 | 1025.3 |
| 20260906014517 | 68 | 248 | 2.0 | 6.0 | 0.00 | 0.00 | 0.00 | 60 | 1025.8 |
| 20260906013517 | 68 | 225 | 1.0 | 4.0 | 0.00 | 0.00 | 0.00 | 59 | 1025.0 |
| 20260906012517 | 69 | 248 | 3.0 | 8.0 | 0.00 | 0.00 | 0.00 | 57 | 1025.1 |
| 20260906011537 | 69 | 248 | 3.0 | 11.0 | 0.00 | 0.00 | 0.00 | 56 | 1025.7 |
| 20260906010517 | 69 | 248 | 1.0 | 6.0 | 0.00 | 0.00 | 0.00 | 54 | 1025.5 |
| 20260906005517 | 70 | 225 | 3.0 | 12.0 | 0.00 | 0.00 | 0.00 | 53 | 1026.0 |
| 20260906004517 | 71 | 248 | 5.0 | 13.0 | 0.00 | 0.00 | 0.00 | 52 | 1026.0 |
| 20260906003517 | 72 | 225 | 3.0 | 9.0 | 0.00 | 0.00 | 0.00 | 50 | 1026.9 |
| 20260906002517 | 72 | 225 | 1.0 | 5.0 | 0.00 | 0.00 | 0.00 | 49 | 1027.0 |
| 20260906001517 | 72 | 248 | 1.0 | 6.0 | 0.00 | 0.00 | 0.00 | 50 | 1026.8 |
| 20260906000517 | 72 | 0.0 | 2.0 | 0.00 | 0.00 | 0.00 | 49 | 1027.2 | |
| 20260905235517 | 72 | 0.0 | 3.0 | 0.00 | 0.00 | 0.00 | 49 | 1026.7 | |
| 20260905234517 | 72 | 0.0 | 3.0 | 0.00 | 0.00 | 0.00 | 49 | 1026.7 | |
| 20260905233517 | 72 | 0.0 | 2.0 | 0.00 | 0.00 | 0.00 | 48 | 1026.7 | |
| 20260905232517 | 72 | 0.0 | 2.0 | 0.00 | 0.00 | 0.00 | 48 | 1026.7 | |
| 20260905231517 | 72 | 248 | 1.0 | 7.0 | 0.00 | 0.00 | 0.00 | 47 | 1026.7 |
| 20260905230537 | 73 | 0.0 | 3.0 | 0.00 | 0.00 | 0.00 | 46 | 1027.7 | |
| 20260905225517 | 73 | 0.0 | 3.0 | 0.00 | 0.00 | 0.00 | 46 | 1027.7 | |
| 20260905224517 | 73 | 0.0 | 3.0 | 0.00 | 0.00 | 0.00 | 45 | 1027.6 | |
| 20260905223517 | 74 | 248 | 1.0 | 6.0 | 0.00 | 0.00 | 0.00 | 44 | 1027.6 |
| 20260905222517 | 74 | 0.0 | 0.0 | 0.00 | 0.00 | 0.00 | 46 | 1027.6 | |
| 20260905221517 | 74 | 270 | 2.0 | 8.0 | 0.00 | 0.00 | 0.00 | 44 | 1027.7 |
| 20260905220517 | 74 | 270 | 3.0 | 8.0 | 0.00 | 0.00 | 0.00 | 44 | 1027.8 |
| 20260905215517 | 75 | 270 | 4.0 | 12.0 | 0.00 | 0.00 | 0.00 | 42 | 1028.3 |
| 20260905214517 | 75 | 270 | 5.0 | 14.0 | 0.00 | 0.00 | 0.00 | 41 | 1028.4 |
| 20260905213537 | 76 | 270 | 4.0 | 16.0 | 0.00 | 0.00 | 0.00 | 41 | 1028.3 |
| 20260905212517 | 77 | 248 | 3.0 | 10.0 | 0.00 | 0.00 | 0.00 | 41 | 1028.6 |
| 20260905211517 | 77 | 248 | 4.0 | 12.0 | 0.00 | 0.00 | 0.00 | 38 | 1029.1 |
| 20260905210517 | 77 | 293 | 5.0 | 12.0 | 0.00 | 0.00 | 0.00 | 38 | 1029.2 |
| 20260905205537 | 76 | 270 | 5.0 | 14.0 | 0.00 | 0.00 | 0.00 | 39 | 1029.4 |
| 20260905204517 | 75 | 248 | 4.0 | 12.0 | 0.00 | 0.00 | 0.00 | 39 | 1029.0 |
| 20260905203537 | 76 | 270 | 3.0 | 11.0 | 0.00 | 0.00 | 0.00 | 38 | 1029.5 |
| 20260905202517 | 77 | 270 | 5.0 | 12.0 | 0.00 | 0.00 | 0.00 | 39 | 1030.2 |
| 20260905201517 | 76 | 225 | 1.0 | 6.0 | 0.00 | 0.00 | 0.00 | 37 | 1029.7 |
| 20260905200517 | 75 | 270 | 5.0 | 11.0 | 0.00 | 0.00 | 0.00 | 38 | 1029.8 |
| 20260905195516 | 76 | 270 | 7.0 | 15.0 | 0.00 | 0.00 | 0.00 | 38 | 1030.5 |
| 20260905194516 | 75 | 225 | 3.0 | 9.0 | 0.00 | 0.00 | 0.00 | 39 | 1030.1 |
| 20260905193516 | 74 | 270 | 5.0 | 11.0 | 0.00 | 0.00 | 0.00 | 38 | 1030.6 |
| 20260905192516 | 74 | 248 | 5.0 | 13.0 | 0.00 | 0.00 | 0.00 | 37 | 1030.6 |
| 20260905191517 | 74 | 293 | 9.0 | 17.0 | 0.00 | 0.00 | 0.00 | 38 | 1030.9 |
| 20260905190536 | 74 | 270 | 7.0 | 17.0 | 0.00 | 0.00 | 0.00 | 38 | 1030.5 |
| 20260905185517 | 74 | 225 | 3.0 | 9.0 | 0.00 | 0.00 | 0.00 | 37 | 1030.4 |
| 20260905184536 | 74 | 270 | 5.0 | 13.0 | 0.00 | 0.00 | 0.00 | 37 | 1030.5 |
| 20260905183537 | 74 | 270 | 5.0 | 15.0 | 0.00 | 0.00 | 0.00 | 39 | 1031.2 |
| 20260905182518 | 74 | 248 | 4.0 | 12.0 | 0.00 | 0.00 | 0.00 | 37 | 1031.2 |
| 20260905181537 | 74 | 225 | 1.0 | 7.0 | 0.00 | 0.00 | 0.00 | 38 | 1030.7 |
| 20260905180518 | 72 | 270 | 4.0 | 10.0 | 0.00 | 0.00 | 0.00 | 39 | 1031.2 |
| 20260905175516 | 72 | 270 | 6.0 | 16.0 | 0.00 | 0.00 | 0.00 | 38 | 1031.1 |
| 20260905174538 | 71 | 270 | 7.0 | 12.0 | 0.00 | 0.00 | 0.00 | 40 | 1030.6 |
| 20260905173516 | 71 | 270 | 4.0 | 10.0 | 0.00 | 0.00 | 0.00 | 42 | 1030.8 |
| 20260905172516 | 70 | 225 | 2.0 | 14.0 | 0.00 | 0.00 | 0.00 | 40 | 1030.8 |
| 20260905171516 | 69 | 270 | 5.0 | 11.0 | 0.00 | 0.00 | 0.00 | 41 | 1030.5 |
| 20260905170516 | 69 | 270 | 4.0 | 9.0 | 0.00 | 0.00 | 0.00 | 44 | 1031.0 |
| 20260905165516 | 69 | 270 | 3.0 | 8.0 | 0.00 | 0.00 | 0.00 | 44 | 1031.1 |
| 20260905164516 | 68 | 270 | 3.0 | 10.0 | 0.00 | 0.00 | 0.00 | 43 | 1030.9 |
| 20260905163516 | 68 | 248 | 1.0 | 9.0 | 0.00 | 0.00 | 0.00 | 44 | 1031.5 |
| 20260905162518 | 67 | 248 | 2.0 | 6.0 | 0.00 | 0.00 | 0.00 | 43 | 1030.8 |